Location: Devore Heights
(34.2372°N, 117.4156°W)
Time: 15:42:38
(UTC+00:00)

Tiros 1 despin weight - Pass Details

Date: 16 September 2024
Orbit: 573 x 615 km, 48.2° (Epoch: 04 October)

Event Time Altitude Azimuth Distance (km) Brightness Sun altitude
Exits shadow 11:59:20 16° 322° (NW) 1,606 ? -20.0°
Maximum altitude 12:00:41 18° 344° (NNW) 1,511 ? -19.8°
Drops below altitude 10° 12:03:52 10° 28° (NNE) 1,983 ? -19.1°
Sets 12:06:50 0° 48° (NE) 2,890 ? -18.5°
